Stations météo

réclame
Mon MeteoGroup
London/Heathrow Intl, Grande-Bretagne (3772): Température de l'air & dewpoint: 15.06.2018 18:00:00 - 21.06.2018 18:00:00 (BST)London/Heathrow Intl, Grande-Bretagne (3772): Vitesse du vent & gusts: 15.06.2018 18:00:00 - 21.06.2018 18:00:00 (BST)London/Heathrow Intl, Grande-Bretagne (3772): Direction du vent: 15.06.2018 18:00:00 - 21.06.2018 18:00:00 (BST)London/Heathrow Intl, Grande-Bretagne (3772): reduced air pressure: 15.06.2018 18:00:00 - 21.06.2018 18:00:00 (BST)London/Heathrow Intl, Grande-Bretagne (3772): visibility: 15.06.2018 18:00:00 - 21.06.2018 18:00:00 (BST)London/Heathrow Intl, Grande-Bretagne (3772): Ensoleillement: 15.06.2018 18:00:00 - 21.06.2018 18:00:00 (BST)London/Heathrow Intl, Grande-Bretagne (3772): Quantités de précipitations: 15.06.2018 18:00:00 - 21.06.2018 18:00:00 (BST)
Date & Time tt [°C] td [°C] ff [km/h] ff [knt] fx [km/h] fx [knt] dd ppp [hPa] vv [km] sd [min] rr [mm]
21.06.2018 18:00:00 19,9 2,6 13 7 - - N 1027,4 10 60 0,0
21.06.2018 17:00:00 19,8 2,9 15 8 - - NNW 1027,2 10 24 0,0
21.06.2018 16:00:00 19,4 2,3 11 6 - - N 1026,9 10 30 0,0
21.06.2018 15:00:00 18,8 2,9 15 8 - - NW 1026,5 10 48 0,0
21.06.2018 14:00:00 19,0 2,9 16 9 - - NNW 1026,3 10 60 0,0
21.06.2018 13:00:00 18,0 3,6 18 10 - - NW 1026,2 10 54 0,0
21.06.2018 12:00:00 18,2 3,7 16 9 - - N 1025,8 10 60 0,0
21.06.2018 11:00:00 16,8 5,1 18 10 - - NW 1025,6 10 54 0,0
21.06.2018 10:00:00 15,8 4,6 16 9 - - NNW 1025,1 10 54 0,0
21.06.2018 09:00:00 13,8 3,7 18 10 - - NW 1024,7 10 54 0,0
21.06.2018 08:00:00 13,5 5,3 15 8 - - NNW 1024,2 10 48 0,0
21.06.2018 07:00:00 12,2 6,5 15 8 - - NW 1023,8 10 24 0,0
21.06.2018 06:00:00 11,4 6,3 11 6 - - WNW 1023,5 10 6 0,0
21.06.2018 05:00:00 10,7 5,9 8 4 - - NW 1023,0 10 0 0,0
21.06.2018 04:00:00 11,5 5,4 9 5 - - NW 1022,7 10 0 0,0
21.06.2018 03:00:00 12,7 5,5 9 5 - - NNW 1022,4 10 0 0,0
21.06.2018 02:00:00 13,8 5,3 11 6 - - NW 1021,9 10 0 0,0
21.06.2018 01:00:00 14,6 6,6 8 4 - - NNW 1021,4 10 - 0,0
21.06.2018 00:00:00 15,8 7,6 16 9 - - NW 1020,9 10 0 0,0
20.06.2018 23:00:00 17,5 11,0 16 9 - - N 1020,1 10 0 0,0
20.06.2018 22:00:00 18,5 13,9 16 9 - - W 1019,4 10 0 0,0
20.06.2018 21:00:00 19,5 14,3 18 10 - - W 1019,0 10 24 0,0
20.06.2018 20:00:00 20,6 14,9 21 11 - - WNW 1018,9 10 54 0,0
20.06.2018 19:00:00 22,6 16,1 21 11 - - WNW 1018,6 10 12 0,0
20.06.2018 18:00:00 23,8 15,6 22 12 - - W 1018,4 10 30 0,0
20.06.2018 17:00:00 25,2 15,6 22 12 - - WSW 1018,6 10 18 0,0
20.06.2018 16:00:00 25,2 15,3 21 11 - - W 1019,1 10 24 0,0
20.06.2018 15:00:00 24,3 15,1 26 14 - - WSW 1019,2 10 30 0,0
20.06.2018 14:00:00 25,0 16,2 24 13 - - WSW 1019,6 10 36 0,0
20.06.2018 13:00:00 22,6 15,9 21 11 - - SSW 1020,1 10 6 0,0
20.06.2018 12:00:00 20,6 14,8 18 10 - - SW 1020,6 10 6 0,0
20.06.2018 11:00:00 19,9 15,5 16 9 - - SW 1020,9 10 6 0,0
20.06.2018 10:00:00 17,2 14,5 16 9 - - SW 1021,2 10 0 0,0
20.06.2018 09:00:00 17,0 14,4 22 12 - - SW 1021,3 10 0 0,0
20.06.2018 08:00:00 15,8 14,3 18 10 - - SW 1021,4 10 0 0,0
20.06.2018 07:00:00 15,5 15,0 15 8 - - SW 1021,3 5 0 0,0
20.06.2018 06:00:00 15,3 14,9 16 9 - - SW 1021,4 3,0 0 0,0
20.06.2018 05:00:00 14,7 14,5 18 10 - - SSW 1021,2 1,1 0 0,0
20.06.2018 04:00:00 15,0 14,6 13 7 - - SSW 1021,3 1,1 0 0,0
20.06.2018 03:00:00 15,0 14,1 11 6 - - SW 1021,7 10 0 0,0
20.06.2018 02:00:00 15,7 14,4 13 7 - - SW 1021,9 19 0 0,0
20.06.2018 01:00:00 16,3 14,7 11 6 - - SW 1022,4 10 - 0,0
20.06.2018 00:00:00 17,4 14,9 9 5 - - SSW 1022,6 10 0 0,0
19.06.2018 23:00:00 18,7 15,1 13 7 - - SW 1022,6 10 0 0,0
19.06.2018 22:00:00 19,5 15,2 16 9 - - SSW 1022,6 10 0 0,0
19.06.2018 21:00:00 20,7 15,6 18 10 - - SSW 1022,2 10 6 0,0
19.06.2018 20:00:00 22,1 15,8 22 12 - - SW 1022,1 10 18 0,0
19.06.2018 19:00:00 23,1 16,2 21 11 - - SW 1022,2 10 6 0,0
19.06.2018 18:00:00 23,4 16,1 18 10 - - SSW 1022,2 10 0 0,0
19.06.2018 17:00:00 24,5 15,6 21 11 - - SW 1022,4 50 18 0,0
19.06.2018 16:00:00 23,8 15,1 22 12 - - WSW 1022,8 10 6 0,0
19.06.2018 15:00:00 23,4 14,8 21 11 - - WSW 1022,9 10 0 0,0
19.06.2018 14:00:00 23,3 14,5 18 10 - - SW 1023,0 10 18 0,0
19.06.2018 13:00:00 23,7 14,3 21 11 - - WSW 1023,3 10 24 0,0
19.06.2018 12:00:00 22,2 14,5 21 11 - - WSW 1023,4 10 0 0,0
19.06.2018 11:00:00 20,9 14,2 16 9 - - WSW 1023,3 10 0 0,0
19.06.2018 10:00:00 20,7 14,3 15 8 - - W 1023,5 10 6 0,0
19.06.2018 09:00:00 19,1 14,0 15 8 - - W 1023,5 10 6 0,0
19.06.2018 08:00:00 18,5 14,2 18 10 - - W 1023,2 10 6 0,0
19.06.2018 07:00:00 17,7 14,2 15 8 - - W 1022,8 10 12 0,0
19.06.2018 06:00:00 17,4 14,2 22 12 - - W 1022,5 10 0 0,0
19.06.2018 05:00:00 17,7 14,5 21 11 - - W 1022,0 10 0 0,0
19.06.2018 04:00:00 18,0 14,8 22 12 - - W 1021,4 10 0 0,0
19.06.2018 03:00:00 18,2 15,0 15 8 - - WSW 1021,3 50 0 0,0
19.06.2018 02:00:00 18,5 14,8 24 13 - - WSW 1021,1 45 0 0,0
19.06.2018 01:00:00 18,7 15,3 26 14 - - WSW 1020,8 29 - 0,0
19.06.2018 00:00:00 18,7 15,4 21 11 - - WSW 1020,8 10 0 0,0
18.06.2018 23:00:00 18,7 15,1 22 12 - - WSW 1021,0 10 0 0,0
18.06.2018 22:00:00 19,2 14,7 24 13 - - WSW 1020,7 10 0 0,0
18.06.2018 21:00:00 19,6 14,2 22 12 - - SW 1020,1 10 0 0,0
18.06.2018 20:00:00 21,1 14,1 24 13 - - WSW 1019,9 10 0 0,0
18.06.2018 19:00:00 22,8 13,9 26 14 - - WSW 1019,2 10 18 0,0
18.06.2018 18:00:00 23,2 14,2 26 14 - - WSW 1019,0 10 24 0,0
18.06.2018 17:00:00 24,3 13,4 26 14 - - W 1018,9 10 54 0,0
18.06.2018 16:00:00 24,6 12,5 31 17 46 25 W 1018,9 10 60 0,0
18.06.2018 15:00:00 25,8 12,2 24 13 54 29 W 1018,8 26 60 0,0
18.06.2018 14:00:00 24,4 10,8 18 10 - - WSW 1019,0 10 60 0,0
18.06.2018 13:00:00 21,9 10,6 22 12 - - WSW 1019,5 10 60 0,0
18.06.2018 12:00:00 21,3 11,3 26 14 - - W 1019,5 10 54 0,0
18.06.2018 11:00:00 18,2 10,9 28 15 - - W 1019,4 10 6 0,0
18.06.2018 10:00:00 17,8 11,6 28 15 - - WSW 1019,4 10 0 0,0
18.06.2018 09:00:00 17,2 11,8 29 16 - - W 1019,1 10 0 0,0
18.06.2018 08:00:00 17,1 12,4 26 14 - - WSW 1018,3 10 48 0,0
18.06.2018 07:00:00 15,5 12,6 22 12 - - WSW 1017,8 10 0 0,0
18.06.2018 06:00:00 14,9 12,9 15 8 - - W 1017,6 10 0 0,0
18.06.2018 05:00:00 14,9 13,4 16 9 - - W 1017,4 10 0 0,2
18.06.2018 04:00:00 15,6 15,0 13 7 - - SSW 1016,9 8 0 0,0
18.06.2018 03:00:00 15,4 15,0 13 7 - - SSW 1016,9 4,0 0 0,0
18.06.2018 02:00:00 15,8 14,5 16 9 - - SW 1016,9 8 0 0,0
18.06.2018 01:00:00 15,7 14,4 16 9 - - SW 1016,9 7 - 0,0
18.06.2018 00:00:00 15,4 14,4 15 8 - - SSW 1017,0 8 0 0,0
17.06.2018 23:00:00 15,7 13,9 18 10 - - SW 1017,1 10 0 0,0
17.06.2018 22:00:00 15,6 13,5 16 9 - - SW 1017,1 10 0 0,0
17.06.2018 21:00:00 15,5 13,2 21 11 - - SW 1016,7 10 0 0,0
17.06.2018 20:00:00 15,8 12,8 24 13 - - SW 1017,0 10 0 0,0
17.06.2018 19:00:00 16,1 12,6 21 11 - - SW 1016,8 10 0 0,0
17.06.2018 18:00:00 16,8 11,6 26 14 - - SW 1016,6 10 0 0,0
17.06.2018 17:00:00 17,7 10,7 24 13 - - SW 1016,6 10 0 0,0
17.06.2018 16:00:00 17,4 10,8 26 14 - - SW 1016,7 10 0 0,0
17.06.2018 15:00:00 18,2 10,6 21 11 - - SW 1016,7 10 0 0,0
17.06.2018 14:00:00 18,4 9,5 24 13 - - WSW 1016,4 10 0 0,0
17.06.2018 13:00:00 18,2 8,7 26 14 - - SW 1016,5 10 18 0,0
17.06.2018 12:00:00 18,7 9,5 22 12 - - WSW 1016,6 10 30 0,0
17.06.2018 11:00:00 17,2 10,1 21 11 - - WSW 1016,7 10 0 0,0
17.06.2018 10:00:00 15,8 10,5 21 11 - - W 1017,1 10 12 0,0
17.06.2018 09:00:00 14,7 12,2 18 10 - - WSW 1016,8 10 6 0,2
17.06.2018 08:00:00 13,7 11,3 16 9 - - WSW 1016,6 10 0 0,0
17.06.2018 07:00:00 13,8 10,4 22 12 - - WSW 1015,9 10 0 0,0
17.06.2018 06:00:00 13,7 9,4 16 9 - - WSW 1015,4 10 0 0,0
17.06.2018 05:00:00 13,6 9,4 16 9 - - WSW 1015,2 10 0 0,0
17.06.2018 04:00:00 13,6 9,2 18 10 - - WSW 1015,0 10 0 0,0
17.06.2018 03:00:00 13,5 9,1 15 8 - - WSW 1015,2 10 0 0,0
17.06.2018 02:00:00 13,4 8,9 15 8 - - WSW 1015,2 10 0 0,0
17.06.2018 01:00:00 13,6 8,4 15 8 - - WSW 1015,1 10 - 0,0
17.06.2018 00:00:00 14,1 8,1 22 12 - - WSW 1014,7 10 0 0,0
16.06.2018 23:00:00 14,7 7,7 24 13 - - WSW 1014,6 10 0 0,0
16.06.2018 22:00:00 15,2 7,7 26 14 - - WSW 1014,4 10 0 0,0
16.06.2018 21:00:00 16,4 9,0 28 15 - - W 1013,8 10 0 0,0
16.06.2018 20:00:00 17,6 11,8 26 14 - - SW 1013,2 10 6 0,0
16.06.2018 19:00:00 17,9 11,7 26 14 - - SSW 1013,0 10 24 0,0
16.06.2018 18:00:00 17,7 11,5 26 14 - - SW 1013,1 10 0 0,0
16.06.2018 17:00:00 17,8 11,8 28 15 - - SW 1013,4 10 0 0,0
16.06.2018 16:00:00 18,3 11,3 28 15 46 25 SW 1013,7 10 12 0,0
16.06.2018 15:00:00 19,0 10,3 28 15 - - SW 1013,8 10 0 0,0
16.06.2018 14:00:00 18,9 9,5 22 12 - - SW 1013,8 10 0 0,0
16.06.2018 13:00:00 19,2 9,4 28 15 - - SW 1013,9 10 36 0,0
16.06.2018 12:00:00 19,2 10,3 22 12 - - SSW 1014,3 10 12 0,0
16.06.2018 11:00:00 18,4 8,1 21 11 - - WSW 1014,5 10 18 0,0
16.06.2018 10:00:00 17,9 9,4 15 8 - - WSW 1014,6 10 36 0,0
16.06.2018 09:00:00 16,4 8,6 15 8 - - WSW 1015,0 10 12 0,0
16.06.2018 08:00:00 15,0 8,6 11 6 - - WSW 1014,9 10 0 0,0
16.06.2018 07:00:00 14,7 8,3 9 5 - - SW 1014,9 10 0 0,0
16.06.2018 06:00:00 14,0 8,7 11 6 - - WSW 1014,9 35 0 0,0
16.06.2018 05:00:00 14,2 8,4 8 4 - - SSW 1014,8 45 0 0,0
16.06.2018 04:00:00 14,6 8,2 9 5 - - WSW 1015,1 45 0 0,0
16.06.2018 03:00:00 14,5 7,6 9 5 - - W 1015,5 30 0 0,0
16.06.2018 02:00:00 14,9 7,4 9 5 - - W 1015,6 50 0 0,0
16.06.2018 01:00:00 16,0 7,1 11 6 - - WNW 1016,0 35 - 0,0
16.06.2018 00:00:00 16,3 8,1 11 6 - - W 1015,9 40 0 0,0
15.06.2018 23:00:00 17,1 7,3 11 6 - - WNW 1016,0 10 0 0,0
15.06.2018 22:00:00 17,9 6,8 15 8 - - WNW 1016,0 10 0 0,0
15.06.2018 21:00:00 18,7 6,7 18 10 - - WNW 1015,9 10 0 0,0
15.06.2018 20:00:00 19,2 7,1 16 9 - - WNW 1015,6 10 18 0,0
15.06.2018 19:00:00 20,9 7,4 16 9 - - W 1015,5 10 36 0,0
15.06.2018 18:00:00 21,1 6,6 16 9 - - W 1015,5 10 36 0,0

tt = Température de l'air
td = dewpoint
ff = Vitesse du vent
fx = gusts
dd = Direction du vent
ppp = reduced air pressure
vv = visibility
sd = Ensoleillement
rr = Quantités de précipitations

stations d'obs. à proximité